Weather History for KDDH - January, 2013

Change the Weather History Date:

Tuesday, January 1, 2013

  Actual Average Record
Temperature  
Mean Temperature 17 °F 22 °F  
Max Temperature 33 °F 31 °F 31 °F (2015)
Min Temperature 1 °F 13 °F 18 °F (2015)
Degree Days  
Heating Degree Days 48 43  
Month to date heating degree days 48 43  
Since 1 July heating degree days 2493 2815  
Cooling Degree Days 0 0  
Month to date cooling degree days 0 0  
Year to date cooling degree days 0 0  
Moisture  
Dew Point 12 °F    
Average Humidity 63    
Maximum Humidity 76    
Minimum Humidity 50    
Precipitation  
Precipitation T in 0.12 in 0.00 in (2015)
Month to date precipitation T 0.12  
Year to date precipitation T 0.12  
Sea Level Pressure  
Sea Level Pressure 29.85 in    
Wind  
Wind Speed 8 mph (West)    
Max Wind Speed 20 mph    
Max Gust Speed 99 mph    
Visibility 10 miles    
Events      
T = Trace of Precipitation, MM = Missing Value Source: NWS Daily Summary

Daily Weather History Graph

Daily Weather History Graph

Search for Another Location

Airport or City:

Trip Planner

Search our weather history database for the weather conditions in past years. The results will help you decide how hot, cold, wet, or windy it might be!

Date:

Astronomy

Jan. 01, 2013 Rise Set
Actual Time 7:24 AM EST 4:29 PM EST
Civil Twilight 6:51 AM EST 5:01 PM EST
Nautical Twilight 6:16 AM EST 5:37 PM EST
Astronomical Twilight 5:41 AM EST 6:11 PM EST
Moon 9:04 PM EST (1/1) 9:28 AM EST (1/1)
Length of Visible Light 10h 09m
Length of Day
9h 05m
Waning Gibbous, 83% of the Moon is Illuminated
Jan 1
Waning Gibbous
Jan 4
Last Quarter
Jan 11
New
Jan 18
First Quarter
Jan 26
Full

Hourly Weather History & Observations

Time (EST) Temp. Windchill Dew Point Humidity Pressure Visibility Wind Dir Wind Speed Gust Speed Precip Events Conditions
12:54 AM 33.1 °F 28.7 °F 24.1 °F 70% 29.76 in 9.0 mi Variable 4.6 mph - N/A   Overcast
1:54 AM 33.1 °F 24.9 °F 25.0 °F 72% 29.76 in 8.0 mi West 10.4 mph - N/A   Overcast
3:37 AM 33.8 °F 25.8 °F 24.8 °F 70% 29.72 in 10.0 mi West 10.4 mph 18.4 mph N/A   Overcast
3:54 AM 33.1 °F 26.9 °F 24.1 °F 70% 29.75 in 10.0 mi WSW 6.9 mph 16.1 mph N/A   Overcast
5:54 AM 32.0 °F 22.1 °F 19.0 °F 59% 29.80 in 10.0 mi West 13.8 mph 28.8 mph N/A   Overcast
6:54 AM 30.0 °F 21.7 °F 17.1 °F 59% 29.83 in 10.0 mi WNW 9.2 mph - N/A   Overcast
7:54 AM 28.9 °F 19.8 °F 15.1 °F 56% 29.85 in 10.0 mi West 10.4 mph - N/A   Overcast
8:54 AM 28.0 °F 18.6 °F 12.9 °F 53% 29.85 in 10.0 mi NW 10.4 mph - N/A   Overcast
10:54 AM 27.0 °F 18.7 °F 12.0 °F 53% 29.85 in 10.0 mi WNW 8.1 mph - N/A   Overcast
11:54 AM 27.0 °F 16.7 °F 15.1 °F 61% 29.84 in 8.0 mi WNW 11.5 mph 19.6 mph N/A   Overcast
1:54 PM 26.1 °F 14.0 °F 12.0 °F 55% 29.83 in 10.0 mi West 15.0 mph 23.0 mph N/A   Overcast
2:54 PM 26.1 °F 17.6 °F 12.0 °F 55% 29.82 in 10.0 mi WNW 8.1 mph 21.9 mph N/A   Overcast
3:54 PM 25.0 °F 13.6 °F 12.0 °F 58% 29.84 in 10.0 mi West 12.7 mph - N/A   Overcast
6:54 PM 18.0 °F 9.8 °F 3.0 °F 52% 29.94 in 10.0 mi WNW 5.8 mph - N/A   Clear
7:54 PM 16.0 °F 10.4 °F 1.9 °F 54% 29.95 in 10.0 mi WNW 3.5 mph - N/A   Clear
8:54 PM 15.1 °F 7.7 °F -0.0 °F 51% 29.95 in 10.0 mi NW 4.6 mph - N/A   Clear
9:54 PM 14.0 °F - -0.9 °F 52% 29.95 in 10.0 mi Calm Calm - N/A   Clear
10:54 PM 7.0 °F 0.1 °F -0.9 °F 70% 29.97 in 10.0 mi South 3.5 mph - N/A   Clear
11:54 PM 6.1 °F -0.9 °F -0.9 °F 73% 29.96 in 10.0 mi South 3.5 mph - N/A   Clear